STARLINK-1545, 46156

Orbit data source: Space-Track

STARLINK-1545, 46156 is a payload satellite owned by SpaceX/Seattle (US) in LEO that was launched on Tue, 18 Aug 2020 UTC via an FALCON 9 launch vehicle from the Air Force Eastern Test Range (AFETR). Payload-class satellites include a variety of spacecraft equipped with specific instruments for various scientific and technological missions. These include communications satellites like Starlink; space stations such as the ISS; scientific satellites like the Hubble; Earth observation satellites from companies like Planet Labs, Umbra, and HawkEye 360; GPS; miniature CubeSats for education and research; and military/defense satellites.

Loading next visibility...
Identifier
46156, 2020-057AR
Orbit
LEO
Country
Flag of USUS
Related business
Manufacturer
SpaceX/Seattle
Mission
Partially operational Commercial Communications
Bus & Motor
STARLINK, Unknown motor
Mass
260 kg wet, ~248 kg dry
Launch date (UTC)
2020-08-18 (6 years ago)
Launch vehicle
FALCON 9
Launch site
Air Force Eastern Test Range (AFETR)
Object type
Payload
Rocket body
Debris
Shape & HBR
Box + 1 Pan, 10.1 m
Radar Cross Section
13.562 m², Large (>1 m²)

Expand to show TLE details & history
Last TLE update: 17 hours ago

TLE from 17 hours ago
0 STARLINK-1545
1 46156U 20057AR  26071.87304145  .00157778  00000-0  17196-2 0  9995
2 46156  53.0444 242.8954 0001924 349.2608  10.8364 15.62393036308636
Epoch: 2026-03-12T20:57Z
TLE epoch observation values (Epoch: 2026-03-12T20:57:10.781Z)
Latitude
Longitude
118.0838°
Altitude
380.369 km
Speed
7.684 km/s
True Right ascension
16h 11m 34s
True Declination
0° 00' 00"
Sunlit
Object was in full shadow at epoch
Visualization orbit readout
Latitude
Unknown
Longitude
Unknown
Altitude
Unknown
Speed
Unknown
Apparent Right ascension
Unknown
Apparent Declination
Unknown
Sunlit
N/A
Visualization observer readout
Local Sidereal Time
18:41:51
Azimuth
Unknown
Elevation
Unknown
Doppler factor
Unknown
Orbital elements
Apogee altitude
382.326 km
Perigee altitude
379.725 km
Semi-major axis
6,759.163 km
Eccentricity
0.00019
Inclination
53.0444°
RAAN
242.8954°
Arg. of periapsis
349.2608°
True anomaly
10.84055°
Mean anomaly
10.8364°
Eccentric anomaly
10.83847°
Mean motion
3.90574 °/min
Orbital period
92.17 mins
BSTAR
0.0017196
Loading maneuver chart data...
Computing Atmospheric mass density...

Documentation

Showing up to 5 results
|